Weather History for Genoa, Italy

Change the Weather History Date:

Saturday, January 25, 2014

  Actual Average Record
Temperature  
Mean Temperature 52 °F -  
Max Temperature 59 °F 53 °F 62 °F (2002)
Min Temperature 45 °F 42 °F 32 °F (2000)
Degree Days  
Heating Degree Days 13    
Growing Degree Days 2 (Base 50)    
Moisture  
Dew Point 18 °F    
Average Humidity 32    
Maximum Humidity 66    
Minimum Humidity 4    
Precipitation  
Precipitation 0.00 in 0.13 in - ()
Sea Level Pressure  
Sea Level Pressure 29.83 in    
Wind  
Wind Speed 8 mph ()    
Max Wind Speed 14 mph    
Max Gust Speed -    
Averages and records for this station are not official NWS values.
T = Trace of Precipitation, MM = Missing Value Source: Averaged Metar Reports

Daily Weather History Graph

Daily Weather History Graph

Search for Another Location

Airport:

Trip Planner

Search our weather history database for the weather conditions in past years. The results will help you decide how hot, cold, wet, or windy it might be!

Date:

Astronomy

Jan. 25, 2014 Rise Set
Actual Time 7:50 AM CET 5:24 PM CET
Civil Twilight 7:18 AM CET 5:55 PM CET
Nautical Twilight 6:43 AM CET 6:30 PM CET
Astronomical Twilight 6:09 AM CET 7:05 PM CET
Moon 2:03 AM CET (1/25) 12:13 PM CET (1/25)
Length of Visible Light 10h 36m
Length of Day
9h 33m
Last Quarter, 37% of the Moon is Illuminated
Jan 25
Last Quarter
Jan 30
New
Feb 6
First Quarter
Feb 15
Full
Feb 22
Last Quarter

Hourly Weather History & Observations

Time (CET) Temp. Windchill Dew Point Humidity Pressure Visibility Wind Dir Wind Speed Gust Speed Precip Events Conditions
12:20 AM 46.4 °F 41.5 °F 12.2 °F 25% 29.80 in - NE 10.4 mph - N/A   Clear
12:50 AM 50.0 °F - 3.2 °F 15% 29.77 in - NNE 13.8 mph - N/A   Clear
1:00 AM 49 °F - 6 °F 8% 29.80 in 25 mi NNE 11.5 mph - -  
1:20 AM 50.0 °F - 3.2 °F 15% 29.80 in - North 12.7 mph - N/A   Clear
1:50 AM 50.0 °F - 3.2 °F 15% 29.80 in - North 12.7 mph - N/A   Clear
2:20 AM 50.0 °F - 3.2 °F 15% 29.80 in - North 13.8 mph - N/A   Clear
2:50 AM 46.4 °F 40.4 °F 8.6 °F 22% 29.80 in - NNE 13.8 mph - N/A   Clear
3:50 AM 46.4 °F 41.5 °F 6.8 °F 20% 29.80 in - NNE 10.4 mph - N/A   Clear
4:00 AM 47 °F - 5 °F 8% 29.81 in 25 mi NNE 12.7 mph - -  
4:20 AM 48.2 °F - 6.8 °F 19% 29.80 in - NNE 10.4 mph - N/A   Clear
4:50 AM 48.2 °F - 3.2 °F 16% 29.80 in - NNE 9.2 mph - N/A   Clear
5:20 AM 48.2 °F - 1.4 °F 15% 29.80 in - NNE 8.1 mph - N/A   Clear
5:50 AM 48.2 °F - 1.4 °F 15% 29.80 in - North 8.1 mph - N/A   Clear
6:20 AM 48.2 °F - 1.4 °F 15% 29.80 in - NNE 8.1 mph - N/A   Clear
6:50 AM 48.2 °F - -0.4 °F 13% 29.80 in - Variable 2.3 mph - N/A   Clear
7:00 AM 48 °F - -0 °F 5% 29.83 in 25 mi ENE 5.8 mph - -  
7:20 AM 48.2 °F - -0.4 °F 13% 29.80 in - ENE 6.9 mph - N/A   Clear
7:50 AM 48.2 °F - 3.2 °F 16% 29.83 in - NE 5.8 mph - N/A   Clear
8:20 AM 48.2 °F - 1.4 °F 15% 29.83 in - Variable 3.5 mph - N/A   Clear
8:50 AM 50.0 °F - 1.4 °F 14% 29.83 in - NE 4.6 mph - N/A   Clear
9:20 AM 51.8 °F - -4.0 °F 10% 29.86 in - NE 9.2 mph - N/A   Clear
9:50 AM 51.8 °F - -2.2 °F 11% 29.86 in - ENE 10.4 mph - N/A   Clear
10:00 AM 52 °F - -3 °F 4% 29.86 in 47 mi ENE 11.5 mph - -  
10:20 AM 53.6 °F - -4.0 °F 9% 29.86 in - ENE 11.5 mph - N/A   Clear
10:50 AM 55.4 °F - -2.2 °F 9% 29.83 in - ENE 10.4 mph - N/A   Clear
11:20 AM 57.2 °F - -4.0 °F 8% 29.86 in - ENE 5.8 mph - N/A   Clear
11:50 AM 59.0 °F - 1.4 °F 10% 29.83 in - SW 3.5 mph - N/A   Clear
12:20 PM 57.2 °F - 21.2 °F 25% 29.83 in - West 6.9 mph - N/A   Clear
12:50 PM 57.2 °F - 24.8 °F 29% 29.83 in - West 6.9 mph - N/A   Clear
1:00 PM 56 °F - 23 °F 16% 29.84 in 47 mi West 6.9 mph - -  
1:20 PM 57.2 °F - 23.0 °F 27% 29.83 in - West 6.9 mph - N/A   Clear
1:50 PM 55.4 °F - 26.6 °F 33% 29.80 in - West 6.9 mph - N/A   Clear
2:20 PM 57.2 °F - 32.0 °F 38% 29.80 in - West 4.6 mph - N/A   Clear
2:50 PM 57.2 °F - 35.6 °F 44% 29.80 in - West 3.5 mph - N/A   Clear
3:20 PM 59.0 °F - 35.6 °F 42% 29.80 in - Variable 2.3 mph - N/A   Clear
3:50 PM 57.2 °F - 37.4 °F 48% 29.80 in - SSW 4.6 mph - N/A   Clear
4:00 PM 56 °F - 38 °F 40% 29.82 in 47 mi South 5.8 mph - -  
4:20 PM 55.4 °F - 37.4 °F 51% 29.83 in - South 5.8 mph - N/A   Clear
4:50 PM 55.4 °F - 37.4 °F 51% 29.80 in - South 4.6 mph - N/A   Clear
5:20 PM 53.6 °F - 33.8 °F 47% 29.83 in - SSE 3.5 mph - N/A   Clear
5:50 PM 51.8 °F - 37.4 °F 58% 29.83 in - NE 5.8 mph - N/A   Clear
6:20 PM 50.0 °F - 37.4 °F 62% 29.86 in - NNE 5.8 mph - N/A   Clear
6:50 PM 50.0 °F - 37.4 °F 62% 29.83 in - NNE 4.6 mph - N/A   Clear
7:00 PM 49 °F - 36 °F 51% 29.85 in 47 mi NNE 4.6 mph - -  
7:20 PM 48.2 °F - 37.4 °F 66% 29.86 in - NNE 6.9 mph - N/A   Clear
7:50 PM 48.2 °F - 35.6 °F 62% 29.86 in - NNE 5.8 mph - N/A   Clear
8:20 PM 48.2 °F - 35.6 °F 62% 29.86 in - NNE 4.6 mph - N/A   Clear
8:50 PM 48.2 °F - 35.6 °F 62% 29.86 in - NNE 4.6 mph - N/A   Clear
9:20 PM 48.2 °F - 35.6 °F 62% 29.86 in - NNE 5.8 mph - N/A   Clear
9:50 PM 46.4 °F 43.5 °F 35.6 °F 66% 29.86 in - NNE 5.8 mph - N/A   Clear
10:00 PM 47 °F - 36 °F 55% 29.87 in 47 mi NNE 6.9 mph - -  
10:20 PM 46.4 °F 43.5 °F 35.6 °F 66% 29.86 in - NE 5.8 mph - N/A   Clear
10:50 PM 46.4 °F 43.5 °F 35.6 °F 66% 29.86 in - North 5.8 mph - N/A   Clear
11:20 PM 46.4 °F 44.3 °F 35.6 °F 66% 29.86 in - NNE 4.6 mph - N/A   Clear
11:50 PM 46.4 °F 44.3 °F 35.6 °F 66% 29.86 in - NE 4.6 mph - N/A   Clear